Location: Borbetomagus
(49.6328°N, 8.3592°E)
Time: 20:41:28
(UTC+00:00)

Okean O Rocket - Pass Details

Date: 19 May 2025
Orbit: 614 x 636 km, 98.0° (Epoch: 20 June)

Event Time Altitude Azimuth Distance (km) Brightness Sun altitude
Exits shadow 19:57:31 - 171° (S) 2,714 4.4 -6.9°
Reaches altitude 10° 19:59:15 10° 173° (S) 2,000 3.7 -7.1°
Maximum altitude 20:03:36 70° 257° (WSW) 667 1.9 -7.6°
Drops below altitude 10° 20:07:57 10° 342° (NNW) 2,003 5.3 -8.1°
Sets 20:10:09 0° 345° (NNW) 2,911 6.2 -8.4°
